Printer-friendly version

IAU Minor Planet Center

Minor Planet Center

MPEC 2005-A46 : 2005 AQ19

The following Minor Planet Electronic Circular may be linked-to from your own Web pages, but must not otherwise be redistributed electronically.


Read MPEC 2005-A45 Read MPEC 2005-A47


M.P.E.C. 2005-A46                                Issued 2005 Jan. 14, 13:53 UT

     The Minor Planet Electronic Circulars contain information on unusual
         minor planets and routine data on comets.  They are published
   on behalf of Commission 20 of the International Astronomical Union by the
          Minor Planet Center, Smithsonian Astrophysical Observatory,
                          Cambridge, MA 02138, U.S.A.

                  Supported in part by the Brinson Foundation
             Prepared using the Tamkin Foundation Computer Network

                              MPC@CFA.HARVARD.EDU
          URL http://cfa-www.harvard.edu/iau/mpc.html  ISSN 1523-6714

                                   2005 AQ19

Observations:
     K05A19Q* C2005 01 13.40217 09 43 30.01 +09 04 50.0          20.5 V EA046691
     K05A19Q  C2005 01 13.42763 09 43 31.27 +09 06 10.5          20.4 V EA046691
     K05A19Q  C2005 01 13.45299 09 43 32.58 +09 07 31.1          20.3 V EA046691
     K05A19Q HC2005 01 13.50527 09 43 35.19 +09 10 16.4          21.4 V EA046291
     K05A19Q HC2005 01 13.51031 09 43 35.56 +09 10 32.4          20.6 V EA046291
     K05A19Q HC2005 01 13.51516 09 43 35.76 +09 10 47.0          20.6 V EA046291
     K05A19Q  C2005 01 14.23476 09 44 20.62 +09 49 09.0          19.7 R EA046649
     K05A19Q  C2005 01 14.23832 09 44 20.83 +09 49 20.2          19.4 R EA046649
     K05A19Q  C2005 01 14.24188 09 44 21.10 +09 49 31.5          19.7 R EA046649
     K05A19Q  C2005 01 14.24544 09 44 21.22 +09 49 43.5          20.2 R EA046649
     K05A19Q  C2005 01 14.33640 09 44 25.69 +09 54 36.9          20.1 R EA046734
     K05A19Q  C2005 01 14.34210 09 44 25.99 +09 54 55.8          19.5 R EA046734
     K05A19Q  C2005 01 14.34780 09 44 26.24 +09 55 13.4          19.7 R EA046734

Observer details:
291 LPL/Spacewatch II.  Observer R. S. McMillan.  1.8-m f/2.7 reflector + CCD.
649 Powell Observatory, Louisburg.  Observers R. Fredrick, R. Trentman.
    0.75-m Newtonian reflector + CCD.
691 Steward Observatory, Kitt Peak.  Observer A. F. Tubbiolo.  0.9-m f/3
    reflector + CCD.
734 Farpoint Observatory.  Observer D. Tibbets.  Measurer G. Hug.  0.4-m f/6
    Schmidt-Cassegrain + CCD.

Orbital elements:
2005 AQ19
Epoch 2005 Jan. 10.0 TT = JDT 2453380.5                 MPC
M   9.43751              (2000.0)            P               Q
n   0.44080401     Peri.  336.12568     -0.18842286     -0.95440261
a   1.7099065      Node   123.95748     +0.94000728     -0.24354008
e   0.2824173      Incl.   16.20963     +0.28439962     +0.17263801
P   2.24           H   21.3           G   0.15
From 13 observations 2005 Jan. 13-14.

Ephemeris:
2005 AQ19                a,e,i = 1.71, 0.28, 16                  q = 1.2270
Date    TT    R. A. (2000) Decl.     Delta      r     Elong.  Phase     V
2005 01 10    09 39.81   +06 10.6    0.301    1.240   144.0    27.8    20.4
2005 01 20    09 49.22   +15 09.9    0.290    1.254   155.5    19.0    20.1
2005 01 30    09 54.41   +24 35.5    0.297    1.273   163.6    12.7    19.9
2005 02 09    09 56.10   +32 45.4    0.322    1.296   161.1    14.3    20.2
2005 02 19    09 56.25   +38 34.4    0.365    1.323   152.6    20.1    20.7
2005 03 01    09 57.19   +41 56.3    0.420    1.353   143.9    25.5    21.2
2005 03 11    10 00.47   +43 17.1    0.486    1.386   136.3    29.7    21.7

Timothy B. Spahr             (C) Copyright 2005 MPC           M.P.E.C. 2005-A46

Read MPEC 2005-A45 Read MPEC 2005-A47


Our Web policy. Index to the CBAT/MPC/ICQ pages.


Valid HTML 4.01!